User: anonymous   Login
Location: Pacheco
(37.9835°N, 122.0752°W)
Time: 15:22:54
(UTC+00:00)
Language:

Cosmos 1666 Rocket - Orbit

View from above orbital plane
View from above orbital plane
View from above satellite
View from above satellite

Ground track
Ground track

The orbit data is extracted from the following two-line orbital elements,

1 15890U 85058B   24176.62393430  .00000554  00000-0  62473-4 0  9999
2 15890  82.5257  19.8768 0021588  45.5362 314.7614 14.84606518 83978
Epoch (UTC): 24 June 2024 14:58:27
Eccentricity: 0.0021588
inclination: 82.5257°
perigee height: 600 km
apogee height: 630 km
right ascension of ascending node: 19.8768°
argument of perigee: 45.5362°
revolutions per day: 14.84606518
mean anomaly at epoch: 314.7614°
orbit number at epoch: 8397

The dashed part of the orbit path shows where the satellite is in the earth's shadow,  

DLR